Regional Weather Roundup
Issued by NWS

Home | Current Version | Previous Version | Graphics & Text | Print | Product List | Glossary Off
Versions: 1 2 3 4 5 6 7 8 9 10 11 12 13 14 15 16 17 18 19 20 21 22 23 24 25 26 27 28 29 30 31 32 33 34 35 36 37 38 39 40 41 42 43 44 45 46 47 48 49 50

000
ASUS43 KDMX 201801
RWRIA

WEATHER ROUNDUP FOR IOWA
NATIONAL WEATHER SERVICE DES MOINES IA
100 PM CDT THU JUL 20 2017

NOTE: "FAIR" INDICATES FEW OR NO CLOUDS BELOW 12,000 FEET WITH NO
SIGNIFICANT WEATHER AND/OR OBSTRUCTIONS TO VISIBILITY.

* - THESE STATIONS ARE NOT NWS STATIONS...THUS NOT UNDER NWS
QUALITY CONTROL.  THEY ALSO DO NOT REPORT WEATHER SUCH
AS PRECIPITATION OR FOG.

IAZ001>003-012>014-020>022-031>034-043>046-201900-
   NORTHWEST IOWA

CITY           SKY/WX    TMP DP  RH WIND       PRES   REMARKS
CARROLL *      SUNNY     91  77  62 VRB5      29.97F HX 105
CHEROKEE *     CLOUDY    88  75  65 E6        30.00S HX  97
DENISON *      SUNNY     91  77  62 S7        29.99F HX 105
ORANGE CITY *  CLOUDY    86  73  66 E8        30.02F HX  93
SHELDON *      CLOUDY    84  72  65 E8G14     30.02R HX  89
SIOUX CITY     CLOUDY    92  76  59 VRB5      29.98S HX 104
6HR MIN TEMP:  78; 6HR MAX TEMP:  92;

SPENCER        SUNNY     88  70  55 NE12      30.01F HX  93
6HR MIN TEMP:  71; 6HR MAX TEMP:  88;

STORM LAKE *   CLOUDY    86  75  70 E9        30.01S HX  95
$$

IAZ055>058-069>071-079>083-090>094-201900-
   SOUTHWEST IOWA

CITY           SKY/WX    TMP DP  RH WIND       PRES   REMARKS
ATLANTIC *     MOSUNNY   90  73  58 CALM      29.98F HX  98
AUDUBON *      SUNNY     91  79  66 SE3       29.99F HX 107
CLARINDA *     SUNNY     90  77  66 SW10      30.01S HX 102
COUNCIL BLFS * CLOUDY    91  75  59 S6        29.98F HX 102
CRESTON *      MOSUNNY   91  75  59 SW10      30.01S HX 102
HARLAN  *      SUNNY     90  77  66 SE7       30.01F HX 102
LAMONI         SUNNY     90  77  65 SW10      30.00S HX 103
6HR MIN TEMP:  76; 6HR MAX TEMP:  90;

RED OAK *      SUNNY     90  77  66 VRB7      29.99S HX 102
SHENANDOAH *   SUNNY     90  77  66 SW7       29.99S HX 102
$$

IAZ047>049-059>061-072>074-084-201900-
   CENTRAL IOWA

CITY           SKY/WX    TMP DP  RH WIND       PRES   REMARKS
AMES           SUNNY     92  78  63 VRB7      29.96F HX 107
6HR MIN TEMP:  78; 6HR MAX TEMP:  92;

ANKENY *       MOSUNNY   93  75  55 CALM      29.97S HX 104
BOONE *        SUNNY     90  77  66 VRB3      29.97F HX 102
CHARITON *     SUNNY     95  73  49 S9G15     29.97F HX 105
DES MOINES     MOSUNNY   92  73  53 VRB6      29.96S HX 100
6HR MIN TEMP:  81; 6HR MAX TEMP:  92;

GRINNELL*      MOSUNNY   88  75  65 SW3       29.99F HX  98
KNOXVILLE *    CLOUDY    91  73  55 NW6       29.96F HX 100
MARSHALLTOWN   SUNNY     90  77  65 VRB5      29.96F HX 103
6HR MIN TEMP:  77; 6HR MAX TEMP:  90;

NEWTON *       MOSUNNY   90  75  62 W5        29.98S HX 100
PELLA *        MOSUNNY   92  72  53 NW5       29.98S HX  99
PERRY *          N/A     90  78  68 CALM      29.98S HX 105
$$

IAZ004>006-015-016-023>025-035-036-201900-
   NORTH CENTRAL IOWA

CITY           SKY/WX    TMP DP  RH WIND       PRES   REMARKS
ALGONA *       SUNNY     86  77  74 NE13      30.01F HX  97
CLARION *      MOSUNNY   86  79  79 NE12      29.99F HX  99
ESTHERVILLE    MOSUNNY   82  75  79 E8        30.02S HX  89
6HR MIN TEMP:  68; 6HR MAX TEMP:  82;

FORT DODGE *   SUNNY     88  75  66 N7        30.00R HX  97
MASON CITY     PTSUNNY   83  75  77 E9        30.03S HX  90
6HR MIN TEMP:  75; 6HR MAX TEMP:  83;

FOREST CITY *    N/A     82  73  74 NE8       30.02F HX  88
WEBSTER CITY * SUNNY     90  77  66 NE7       29.96F HX 102
IOWA FALLS *   PTSUNNY   88  78  71 N7        30.00R HX 100
$$

IAZ007>011-017>019-026>030-037>042-050>054-066-201900-
   NORTHEAST IOWA

CITY           SKY/WX    TMP DP  RH WIND       PRES   REMARKS
CEDAR RAPIDS   SUNNY     87  79  76 SW6       29.96F HX 101
6HR MIN TEMP:  77; 6HR MAX TEMP:  87; 6HR PCP:  0.06;

CHARLES CITY * CLOUDY    81  77  89 NE7       30.02R HX  88
CLINTON *      CLOUDY    84  77  79 SW8       29.97F HX  94
DECORAH *      CLOUDY    81  73  78 N6        30.00S HX  85
DUBUQUE        CLOUDY    81  75  82 SW7       29.98F HX  87
6HR MIN TEMP:  68; 6HR MAX TEMP:  81;

MONTICELLO *   CLOUDY    84  75  74 CALM      29.97F HX  92
OELWEIN *      CLOUDY    84  79  84 VRB3      30.00S HX  96
WATERLOO       MOSUNNY   86  77  74 NE8       29.96S HX  97
6HR MIN TEMP:  75; 6HR MAX TEMP:  86;

$$

IAZ064-065-067-068-078-201900-
   EAST CENTRAL IOWA

CITY           SKY/WX    TMP DP  RH WIND       PRES   REMARKS
DAVENPORT      MOSUNNY   86  76  71 SW10      29.98F HX  96
6HR MIN TEMP:  73; 6HR MAX TEMP:  86; 6HR PCP:  0.01;

IOWA CITY      MOSUNNY   90  76  63 SW5       29.97F HX 101
6HR MIN TEMP:  80; 6HR MAX TEMP:  90; 6HR PCP:  0.01;

MUSCATINE *    SUNNY     91  75  59 SW8       29.96S HX 102
QUAD CITIES    SUNNY     88  74  63 W8        29.95F HX  96
6HR MIN TEMP:  75; 6HR MAX TEMP:  89; 6HR PCP:  0.04;

$$

IAZ062-063-075>077-085>089-095>099-201900-
   SOUTHEAST IOWA

CITY           SKY/WX    TMP DP  RH WIND       PRES   REMARKS
BURLINGTON     SUNNY     92  79  65 SW8       29.96F HX 108
6HR MIN TEMP:  78; 6HR MAX TEMP:  92;

FAIRFIELD *    SUNNY     93  73  52 SW5G12    29.96F HX 102
FORT MADISON * SUNNY     93  77  59 SW7       29.98F HX 107
KEOKUK *       SUNNY     95  75  52 W14       29.97F HX 107
OSKALOOSA *      N/A     93  74  54 W7        29.97F HX 102
OTTUMWA        SUNNY     96  73  47 SW7       29.95F HX 105
6HR MIN TEMP:  81; 6HR MAX TEMP:  96;

WASHINGTON *   SUNNY     91  77  62 SW7       29.97F HX 105
$$

ABBREVIATIONS USED IN REMARKS
   TC - TEMPERATURES IN CELSIUS
  WCI - WIND CHILL INDEX
   HX - HEAT INDEX
  VSB - VISIBILITY
$$





USA.gov is the U.S. government's official web portal to all federal, state and local government web resources and services.